Location: Bishop�s Knoyle
(51.0728°N, 2.1714°W)
Time: 04:00:33
(UTC+00:00)

KKS-1 - Visible Passes

Search period start: 06 December 2021 00:00
Search period end: 16 December 2021 00:00
Orbit: 637 x 648 km, 98.2° (Epoch: 05 December)

Date Brightness Start Highest point End Pass type
(mag) Time Alt. Az. Time Alt. Az. Time Alt. Az.
06 Dec ? 07:10:10 10° E 07:13:02 17° ENE 07:15:55 10° NNE visible
09 Dec ? 06:48:19 10° ENE 06:49:39 11° NE 06:50:58 10° NE visible
10 Dec ? 07:10:43 10° E 07:13:35 17° ENE 07:16:27 10° NNE visible
13 Dec ? 06:48:51 10° ENE 06:50:10 11° NE 06:51:29 10° NE visible
14 Dec ? 07:11:15 10° E 07:14:06 17° ENE 07:16:58 10° NNE visible
